This is the latest recevied weather packets stored in our database for station/object IK2ILW-4. If no packets are shown the sender has not sent any weather packets the latest 10 day(s).
| Time | Temp. | Humidity | Pressure | Rain* | Wind** | Luminosity | Snow |
|---|---|---|---|---|---|---|---|
| 1787595755 | 18.33° C | 78% | 1020.8 hPa | 0 mm | - | 0 W/m² | - |
| 1787595468 | 18.33° C | 78% | 1020.8 hPa | 0 mm | - | 0 W/m² | - |
| 1787595162 | 18.33° C | 79% | 1020 hPa | 0 mm | - | 0 W/m² | - |
| 1787594855 | 18.33° C | 79% | 1020 hPa | 0 mm | - | 0 W/m² | - |
| 1787594570 | 18.33° C | 80% | 1020 hPa | 0 mm | - | 0 W/m² | - |
| 1787594256 | 18.33° C | 79% | 1020 hPa | 0 mm | - | 9 W/m² | - |
| 1787593972 | 18.33° C | 79% | 1020 hPa | 0 mm | - | 18 W/m² | - |
| 1787593660 | 18.33° C | 78% | 1020 hPa | 0 mm | - | 21 W/m² | - |
| 1787593372 | 18.33° C | 77% | 1020.9 hPa | 0 mm | - | 23 W/m² | - |
| 1787593063 | 18.89° C | 77% | 1020.9 hPa | 0 mm | - | 32 W/m² | - |
| 1787592761 | 18.89° C | 76% | 1020.9 hPa | 0 mm | - | 42 W/m² | - |
| 1787592454 | 18.89° C | 77% | 1021.1 hPa | 0 mm | - | 42 W/m² | - |
| 1787592169 | 18.89° C | 77% | 1021.1 hPa | 0 mm | - | 51 W/m² | - |
| 1787591875 | 18.89° C | 77% | 1021.1 hPa | 0 mm | - | 56 W/m² | - |
| 1787591568 | 18.89° C | 77% | 1021.4 hPa | 0 mm | - | 58 W/m² | - |
| 1787591261 | 18.89° C | 77% | 1021.4 hPa | 0 mm | - | 74 W/m² | - |
| 1787590970 | 18.89° C | 77% | 1021.4 hPa | 0 mm | - | 70 W/m² | - |
| 1787590664 | 18.89° C | 76% | 1021.4 hPa | 0 mm | - | 77 W/m² | - |
| 1787590358 | 18.89° C | 76% | 1021.4 hPa | 0 mm | - | 62 W/m² | - |
| 1787590066 | 18.89° C | 76% | 1021.4 hPa | 0 mm | - | 56 W/m² | - |
| 1787589760 | 18.89° C | 77% | 1021.7 hPa | 0 mm | - | 58 W/m² | - |
| 1787589456 | 18.89° C | 76% | 1021.7 hPa | 0 mm | - | 63 W/m² | - |
| 1787589158 | 19.44° C | 76% | 1021.7 hPa | 0 mm | - | 67 W/m² | - |
| 1787588873 | 19.44° C | 76% | 1021.9 hPa | 0 mm | - | 114 W/m² | - |
| 1787588558 | 19.44° C | 77% | 1021.9 hPa | 0 mm | - | 227 W/m² | - |
* Rain since midnight (hover to see other rain measurements)
** Current wind speed in m/s (hover to see current wind gust speed)